Change the Weather History Date:

Monday, November 18, 2013

  Actual Average (KAND) Record (KAND)
Temperature  
Mean Temperature 64 °F -  
Max Temperature 79 °F 63 °F 80 °F (1964)
Min Temperature 48 °F 40 °F 23 °F (1951)
Degree Days  
Heating Degree Days 2    
Growing Degree Days 14 (Base 50)    
Moisture  
Dew Point 53 °F    
Average Humidity 68    
Maximum Humidity 94    
Minimum Humidity 26    
Precipitation  
Precipitation 0.13 in - - ()
Sea Level Pressure  
Sea Level Pressure 29.93 in    
Wind  
Wind Speed 8 mph (West)    
Max Wind Speed 13 mph    
Max Gust Speed 18 mph    
Visibility 9 miles    
Events Rain    
Averages and records for this station are not official NWS values.
T = Trace of Precipitation, MM = Missing Value Source: NWS Daily Summary

Daily Weather History Graph

Daily Weather History Graph

Search for Another Location

Airport or City:

Trip Planner

Search our weather history database for the weather conditions in past years. The results will help you decide how hot, cold, wet, or windy it might be!

Date:

Astronomy

Nov. 18, 2013 Rise Set
Actual Time 7:04 AM EST 5:22 PM EST
Civil Twilight 6:37 AM EST 5:49 PM EST
Nautical Twilight 6:07 AM EST 6:20 PM EST
Astronomical Twilight 5:37 AM EST 6:49 PM EST
Moon 6:24 PM EST (11/18) 7:51 AM EST (11/18)
Length of Visible Light 11h 11m
Length of Day
10h 18m
Full, 99% of the Moon is Illuminated
Nov 18
Full
Nov 25
Last Quarter
Dec 2
New
Dec 9
First Quarter
Dec 17
Full

Hourly Weather History & Observations

Time (EST) Temp. Dew Point Humidity Pressure Visibility Wind Dir Wind Speed Gust Speed Precip Events Conditions
12:56 AM 69.1 °F 66.9 °F 93% 29.93 in 6.0 mi SSW 11.5 mph - 0.01 in Rain Light Rain
1:56 AM 69.1 °F 66.9 °F 93% 29.91 in 8.0 mi SW 10.4 mph - 0.00 in   Overcast
2:56 AM 69.1 °F 66.9 °F 93% 29.89 in 9.0 mi SW 9.2 mph - N/A   Overcast
3:56 AM 70.0 °F 66.9 °F 90% 29.89 in 10.0 mi SW 10.4 mph - N/A   Overcast
4:21 AM 69.8 °F 66.2 °F 88% 29.90 in 9.0 mi SW 10.4 mph - N/A   Overcast
4:56 AM 70.0 °F 66.9 °F 90% 29.89 in 10.0 mi SW 8.1 mph - N/A   Overcast
5:35 AM 69.8 °F 66.2 °F 88% 29.90 in 9.0 mi SW 8.1 mph - 0.01 in Rain Light Rain
5:56 AM 70.0 °F 66.9 °F 90% 29.90 in 8.0 mi WNW 9.2 mph - 0.01 in   Overcast
6:03 AM 66.2 °F 62.6 °F 88% 29.93 in 3.0 mi WNW 10.4 mph 18.4 mph 0.06 in Rain Heavy Rain
6:09 AM 66.2 °F 62.6 °F 88% 29.93 in 1.8 mi West 6.9 mph 18.4 mph 0.10 in Rain Heavy Rain
6:15 AM 64.4 °F 62.6 °F 94% 29.92 in 3.0 mi WSW 4.6 mph - 0.11 in Rain Light Rain
6:56 AM 64.0 °F 61.0 °F 90% 29.91 in 10.0 mi WSW 4.6 mph - 0.11 in   Overcast
7:56 AM 64.0 °F 62.1 °F 93% 29.93 in 9.0 mi Calm Calm - N/A   Partly Cloudy
8:46 AM 66.2 °F 62.6 °F 88% 29.96 in 10.0 mi WNW 3.5 mph - N/A   Mostly Cloudy
8:56 AM 66.0 °F 63.0 °F 90% 29.94 in 10.0 mi Calm Calm - N/A   Mostly Cloudy
9:56 AM 69.1 °F 64.0 °F 84% 29.95 in 10.0 mi Calm Calm - N/A   Partly Cloudy
10:56 AM 73.0 °F 60.1 °F 64% 29.94 in 10.0 mi SW 4.6 mph - N/A   Clear
11:56 AM 75.9 °F 54.0 °F 46% 29.91 in 10.0 mi WSW 9.2 mph - N/A   Clear
12:56 PM 78.1 °F 50.0 °F 37% 29.89 in 10.0 mi WSW 9.2 mph 16.1 mph N/A   Clear
1:56 PM 79.0 °F 44.1 °F 29% 29.88 in 10.0 mi West 9.2 mph 17.3 mph N/A   Clear
2:56 PM 79.0 °F 41.0 °F 26% 29.88 in 10.0 mi WNW 12.7 mph 18.4 mph N/A   Clear
3:56 PM 75.9 °F 41.0 °F 29% 29.88 in 10.0 mi WNW 8.1 mph - N/A   Clear
4:56 PM 72.0 °F 37.0 °F 28% 29.89 in 10.0 mi West 9.2 mph - N/A   Clear
5:56 PM 66.9 °F 33.1 °F 28% 29.93 in 10.0 mi West 8.1 mph - N/A   Clear
6:56 PM 64.0 °F 32.0 °F 30% 29.94 in 10.0 mi West 5.8 mph - N/A   Clear
7:56 PM 57.0 °F 34.0 °F 42% 29.96 in 10.0 mi Calm Calm - N/A   Clear
8:56 PM 52.0 °F 36.0 °F 54% 29.98 in 10.0 mi Calm Calm - N/A   Clear
9:56 PM 50.0 °F 35.1 °F 57% 29.99 in 10.0 mi NNW 3.5 mph - N/A   Clear
10:56 PM 48.0 °F 37.0 °F 66% 30.01 in 10.0 mi NNW 3.5 mph - N/A   Clear
11:56 PM 51.1 °F 33.1 °F 50% 30.01 in 10.0 mi North 5.8 mph - N/A   Clear